Location: A�t �Alizem
(31.2076°N, 8.7872°W)
Time: 09:18:02
(UTC+00:00)

ISS - Visible Passes

Search period start: 26 September 2021 00:00
Search period end: 06 October 2021 00:00
Orbit: 417 x 422 km, 51.6° (Epoch: 26 September)

Date Brightness Start Highest point End Pass type
(mag) Time Alt. Az. Time Alt. Az. Time Alt. Az.
03 Oct -1.4 20:00:00 10° NNW 20:01:02 16° N 20:01:02 16° N visible
04 Oct -1.8 19:13:16 10° N 19:15:23 16° NE 19:15:51 15° NE visible
05 Oct -2.3 20:01:44 10° NW 20:03:48 35° NW 20:03:48 35° NW visible
